Regional Weather Roundup
Issued by NWS

Home | Current Version | Previous Version | Graphics & Text | Print | Product List | Glossary On
Versions: 1 2 3 4 5 6 7 8 9 10 11 12 13 14 15 16 17 18 19 20 21 22 23 24 25 26 27 28 29 30 31 32 33 34 35 36 37 38 39 40 41 42 43 44 45 46 47 48 49 50
771
ASUS43 KDMX 220606
RWRIA

WEATHER ROUNDUP FOR IOWA
NATIONAL WEATHER SERVICE DES MOINES IA
100 AM CDT SUN OCT 22 2017

NOTE: "FAIR" INDICATES FEW OR NO CLOUDS BELOW 12,000 FEET WITH NO
SIGNIFICANT WEATHER AND/OR OBSTRUCTIONS TO VISIBILITY.

* - THESE STATIONS ARE NOT NWS STATIONS...THUS NOT UNDER NWS
QUALITY CONTROL.  THEY ALSO DO NOT REPORT WEATHER SUCH
AS PRECIPITATION OR FOG.

IAZ001>003-012>014-020>022-031>034-043>046-220700-
   NORTHWEST IOWA

CITY           SKY/WX    TMP DP  RH WIND       PRES   REMARKS
CHEROKEE *     CLOUDY    42  41  94 S3        29.97R
DENISON *      CLOUDY    46  43  87 CALM      30.00R
LE MARS *      MOCLDY    41  39  93 CALM      29.97R
ORANGE CITY *  PTCLDY    43  39  87 W5        29.95S
SHELDON *      PTCLDY    43  39  87 W6        29.93S
SIOUX CITY     PTCLDY    41  39  93 W3        29.99R
6HR MIN TEMP:  41; 6HR MAX TEMP:  53;

SPENCER        PTCLDY    42  39  89 W6        29.94F
6HR MIN TEMP:  42; 6HR MAX TEMP:  54; 6HR PCP: TRACE;

STORM LAKE *   CLOUDY    45  41  87 SW8       29.97R
$$

IAZ055>058-069>071-079>083-090>094-220700-
   SOUTHWEST IOWA

CITY           SKY/WX    TMP DP  RH WIND       PRES   REMARKS
ATLANTIC *     MOCLDY    50  45  81 CALM      29.98R
AUDUBON *      CLOUDY    50  43  76 NW3       29.98S
CLARINDA *       N/A     52  45  76 N5        29.99F
COUNCIL BLFS * CLOUDY    50  43  76 NW5       30.00S
CRESTON *      CLOUDY    50  46  87 NW10      29.98R
HARLAN  *      CLOUDY    48  46  93 CALM      30.02R
LAMONI         LGT RAIN  51  48  89 N10       29.94S
6HR MIN TEMP:  51; 6HR MAX TEMP:  60; 6HR PCP:  1.34;

RED OAK *      CLOUDY    52  43  71 NW6       29.98F
SHENANDOAH *   CLOUDY    54  43  66 NW5       29.99F
$$

IAZ047>049-059>061-072>074-084-220700-
   CENTRAL IOWA

CITY           SKY/WX    TMP DP  RH WIND       PRES   REMARKS
AMES           CLOUDY    52  47  83 NW13      29.91F
6HR MIN TEMP:  52; 6HR MAX TEMP:  71; 6HR PCP:  0.43;

ANKENY *       LGT RAIN  52  46  82 NW7       29.93F
BOONE *        CLOUDY    52  43  71 NW12      29.91F
CHARITON *     LGT RAIN  50  48  93 N9G16     29.93S
DES MOINES     LGT RAIN  52  47  83 NW10      29.92F
6HR MIN TEMP:  52; 6HR MAX TEMP:  69; 6HR PCP:  0.75;

GRINNELL*      RAIN      52  49  90 NW10      29.93F
KNOXVILLE *    LGT RAIN  52  48  87 NW8       29.92R
MARSHALLTOWN   LGT RAIN  52  49  89 NW12      29.92R
6HR MIN TEMP:  52; 6HR MAX TEMP:  69; 6HR PCP:  1.30;

NEWTON *       CLOUDY    52  50  93 NW10      29.93R
PELLA *        RAIN      52  50  93 NW6       29.95R
PERRY *          N/A     51  46  83 NW6       29.95R
$$

IAZ004>006-015-016-023>025-035-036-220700-
   NORTH CENTRAL IOWA

CITY           SKY/WX    TMP DP  RH WIND       PRES   REMARKS
ALGONA *       CLOUDY    48  46  93 W6        29.94S
CLARION *      CLOUDY    50  48  93 NW8       29.92F
ESTHERVILLE    CLOUDY    44  42  93 W6        29.93S
6HR MIN TEMP:  44; 6HR MAX TEMP:  55;

FORT DODGE *   CLOUDY    50  43  77 W5        29.94F
MASON CITY     MOCLDY    50  43  77 NW12      29.93S
6HR MIN TEMP:  50; 6HR MAX TEMP:  68; 6HR PCP:  0.60;

FOREST CITY *    N/A     50  43  76 NW9       29.92S
WEBSTER CITY * CLOUDY    50  45  81 NW9       29.91F
IOWA FALLS *   MOCLDY    52  47  82 NW10      29.92F
$$

IAZ007>011-017>019-026>030-037>042-050>054-066-220700-
   NORTHEAST IOWA

CITY           SKY/WX    TMP DP  RH WIND       PRES   REMARKS
CEDAR RAPIDS   RAIN      57  57 100 NW13      29.88S FOG
6HR MIN TEMP:  58; 6HR MAX TEMP:  74; 6HR PCP:  0.21;

CHARLES CITY * CLOUDY    52  50  93 NW10G17   29.90S
CLINTON *      CLOUDY    69  59  70 S16G23    29.88S
DECORAH *      CLOUDY    54  52  94 NW9G16    29.85F
DUBUQUE        CLOUDY    65  57  75 W7        29.89R
6HR MIN TEMP:  65; 6HR MAX TEMP:  72; 6HR PCP: TRACE;

MONTICELLO *   LGT RAIN  61  61 100 S5        29.89R
OELWEIN *      CLOUDY    55  54  94 W12       29.92R
WATERLOO       LGT RAIN  53  49  86 W9        29.91R
6HR MIN TEMP:  53; 6HR MAX TEMP:  71; 6HR PCP:  0.94;

$$

IAZ064-065-067-068-078-220700-
   EAST CENTRAL IOWA

CITY           SKY/WX    TMP DP  RH WIND       PRES   REMARKS
DAVENPORT      CLOUDY    69  58  67 W12G20    29.92R
6HR MIN TEMP:  69; 6HR MAX TEMP:  74;

IOWA CITY      LGT RAIN  62  60  93 SW3       29.90S
6HR MIN TEMP:  62; 6HR MAX TEMP:  76; 6HR PCP:  0.33;

MUSCATINE *    CLOUDY    64  59  82 CALM      29.89F
QUAD CITIES    CLOUDY    71  57  61 S15       29.87S
6HR MIN TEMP:  71; 6HR MAX TEMP:  74;

$$

IAZ062-063-075>077-085>089-095>099-220700-
   SOUTHEAST IOWA

CITY           SKY/WX    TMP DP  RH WIND       PRES   REMARKS
BURLINGTON     CLOUDY    70  62  76 VRB7      29.88R
6HR MIN TEMP:  69; 6HR MAX TEMP:  73;

FAIRFIELD *    CLOUDY    57  55  94 NW16      29.89S FOG
FORT MADISON * CLOUDY    66  59  77 N5        29.88F
KEOKUK *       CLOUDY    72  63  73 S9        29.86S
OSKALOOSA *    RAIN      54  52  95 NW12      29.92R
OTTUMWA        RAIN      55  53  93 NW10      29.92S
6HR MIN TEMP:  55; 6HR MAX TEMP:  73; 6HR PCP:  0.41;

WASHINGTON *   LGT RAIN  61  61 100 SW5       29.91R
$$

ABBREVIATIONS USED IN REMARKS
   TC - TEMPERATURES IN CELSIUS
  WCI - WIND CHILL INDEX
   HX - HEAT INDEX
  VSB - VISIBILITY
$$





USA.gov is the U.S. government's official web portal to all federal, state and local government web resources and services.